Weather History for Baton Rouge, LA

Change the Weather History Date:

Wednesday, June 13, 2012

  Actual Average Record
Temperature  
Mean Temperature 79 °F 81 °F  
Max Temperature 90 °F 91 °F 99 °F (1902)
Min Temperature 68 °F 71 °F 55 °F (1913)
Degree Days  
Heating Degree Days 0 0  
Month to date heating degree days 0 0  
Since 1 June heating degree days 0 0  
Since 1 July heating degree days 1130 1555  
Cooling Degree Days 14 16  
Month to date cooling degree days 167 197  
Year to date cooling degree days 980 762  
Since 1 June cooling degree days 167 197  
Growing Degree Days 30 (Base 50)    
Moisture  
Dew Point 70 °F    
Average Humidity 76    
Maximum Humidity 100    
Minimum Humidity 52    
Precipitation  
Precipitation 0.00 in 0.21 in 3.25 in (1912)
Month to date precipitation 1.84 2.51  
Year to date precipitation 27.61 27.03  
Snow  
Snow 0.00 in - - ()
Month to date snowfall 0.0  
Since 1 June snowfall 0.0  
Since 1 July snowfall 0.0  
Snow Depth 0.00 in    
Sea Level Pressure  
Sea Level Pressure 29.99 in    
Wind  
Wind Speed 3 mph (WNW)    
Max Wind Speed 10 mph    
Max Gust Speed 20 mph    
Visibility 10 miles    
Events      
T = Trace of Precipitation, MM = Missing Value Source: NWS Daily Summary

Daily Weather History Graph

Daily Weather History Graph

Search for Another Location

Airport:

Trip Planner

Search our weather history database for the weather conditions in past years. The results will help you decide how hot, cold, wet, or windy it might be!

Date:

Astronomy

Jun. 13, 2012 Rise Set
Actual Time 6:01 AM CDT 8:08 PM CDT
Civil Twilight 5:34 AM CDT 8:35 PM CDT
Nautical Twilight 5:00 AM CDT 9:09 PM CDT
Astronomical Twilight 4:24 AM CDT 9:45 PM CDT
Moon 1:58 AM CDT (6/13) 3:09 PM CDT (6/13)
Length of Visible Light 15h 01m
Length of Day
14h 06m
Waning Crescent, 29% of the Moon is Illuminated
Jun 13
Waning Crescent
Jun 19
New
Jun 26
First Quarter
Jul 3
Full
Jul 10
Last Quarter

Hourly Weather History & Observations

Time (CDT) Temp. Heat Index Dew Point Humidity Pressure Visibility Wind Dir Wind Speed Gust Speed Precip Events Conditions
12:53 AM 73.0 °F - 71.1 °F 93% 30.03 in 10.0 mi Calm Calm - N/A   Mostly Cloudy
1:53 AM 73.0 °F - 71.1 °F 93% 30.02 in 10.0 mi Calm Calm - N/A   Mostly Cloudy
2:53 AM 70.0 °F - 69.1 °F 97% 30.01 in 10.0 mi Calm Calm - N/A   Clear
3:53 AM 70.0 °F - 69.1 °F 97% 29.99 in 10.0 mi Calm Calm - N/A   Clear
4:53 AM 69.1 °F - 66.9 °F 93% 30.00 in 10.0 mi SW 3.5 mph - N/A   Clear
5:53 AM 69.1 °F - 68.0 °F 96% 30.01 in 10.0 mi Calm Calm - N/A   Clear
6:53 AM 71.1 °F - 69.1 °F 93% 30.03 in 10.0 mi Calm Calm - N/A   Clear
7:53 AM 73.9 °F - 69.1 °F 85% 30.05 in 10.0 mi Calm Calm - N/A   Clear
8:53 AM 79.0 °F - 69.1 °F 72% 30.06 in 10.0 mi Variable 3.5 mph - N/A   Partly Cloudy
9:53 AM 80.1 °F 82.7 °F 68.0 °F 67% 30.04 in 10.0 mi Calm Calm - N/A   Clear
10:53 AM 82.9 °F 85.8 °F 68.0 °F 60% 30.02 in 10.0 mi NNW 3.5 mph - N/A   Scattered Clouds
11:53 AM 84.0 °F 87.0 °F 68.0 °F 58% 30.02 in 10.0 mi Variable 4.6 mph - N/A   Scattered Clouds
12:53 PM 84.9 °F 89.4 °F 70.0 °F 61% 30.00 in 10.0 mi West 6.9 mph - N/A   Mostly Cloudy
1:53 PM 87.1 °F 92.0 °F 70.0 °F 57% 29.99 in 10.0 mi WSW 5.8 mph - N/A   Mostly Cloudy
2:53 PM 89.1 °F 95.0 °F 71.1 °F 55% 29.96 in 10.0 mi West 8.1 mph - N/A   Partly Cloudy
3:53 PM 88.0 °F 92.9 °F 70.0 °F 55% 29.95 in 10.0 mi West 5.8 mph - N/A   Scattered Clouds
4:53 PM 90.0 °F 95.4 °F 70.0 °F 52% 29.94 in 10.0 mi North 4.6 mph - N/A   Scattered Clouds
5:53 PM 89.1 °F 93.7 °F 69.1 °F 52% 29.93 in 10.0 mi WNW 10.4 mph - N/A   Scattered Clouds
6:53 PM 87.1 °F 92.0 °F 70.0 °F 57% 29.92 in 10.0 mi NE 6.9 mph - N/A   Partly Cloudy
7:53 PM 81.0 °F 85.2 °F 72.0 °F 74% 29.93 in 10.0 mi Calm Calm - N/A   Clear
8:20 PM 80.6 °F 84.6 °F 71.6 °F 74% 29.93 in 10.0 mi Calm Calm - N/A   Partly Cloudy
8:53 PM 79.0 °F - 72.0 °F 79% 29.94 in 10.0 mi Calm Calm - N/A   Clear
9:53 PM 79.0 °F - 72.0 °F 79% 29.96 in 10.0 mi Calm Calm - N/A   Clear
10:53 PM 79.0 °F - 72.0 °F 79% 29.97 in 10.0 mi Calm Calm - N/A   Clear
11:53 PM 78.1 °F - 73.0 °F 84% 29.97 in 10.0 mi Calm Calm - N/A   Scattered Clouds